| time (UTC) | temp C | wind direction | speed KPH | gust KPH | rain 1hr cm | rain 24hr cm | rain mn cm | humidity % | barometer mb |
| 20260906062058 | 15 | 263 | 4.8 | 12.9 | 0.00 | 0.08 | 0.08 | 73 | 1023.8 |
| 20260906061553 | 15 | 263 | 4.8 | 12.9 | 0.00 | 0.08 | 0.08 | 72 | 1023.8 |
| 20260906061047 | 15 | 263 | 4.8 | 12.9 | 0.00 | 0.08 | 0.08 | 73 | 1023.8 |
| 20260906060553 | 15 | 263 | 4.8 | 12.9 | 0.00 | 0.08 | 0.08 | 73 | 1023.8 |
| 20260906060050 | 15 | 263 | 4.8 | 9.7 | 0.00 | 0.08 | 0.08 | 74 | 1023.8 |
| 20260906055600 | 15 | 263 | 4.8 | 16.1 | 0.00 | 0.08 | 0.08 | 74 | 1023.7 |
| 20260906055043 | 15 | 263 | 3.2 | 16.1 | 0.00 | 0.08 | 0.08 | 75 | 1023.7 |
| 20260906054536 | 15 | 263 | 4.8 | 16.1 | 0.00 | 0.08 | 0.08 | 75 | 1023.7 |
| 20260906053412 | 15 | 263 | 6.4 | 16.1 | 0.00 | 0.08 | 0.08 | 74 | 1023.4 |
| 20260906052908 | 15 | 263 | 3.2 | 16.1 | 0.00 | 0.08 | 0.08 | 75 | 1023.4 |
| 20260906052416 | 15 | 263 | 4.8 | 16.1 | 0.00 | 0.08 | 0.08 | 76 | 1023.3 |
| 20260906051917 | 15 | 263 | 6.4 | 16.1 | 0.00 | 0.08 | 0.08 | 76 | 1023.3 |
| 20260906051425 | 15 | 263 | 4.8 | 14.5 | 0.00 | 0.08 | 0.08 | 76 | 1023.3 |
| 20260906050908 | 15 | 263 | 4.8 | 14.5 | 0.00 | 0.08 | 0.08 | 76 | 1023.3 |
| 20260906050410 | 15 | 263 | 4.8 | 12.9 | 0.00 | 0.08 | 0.08 | 76 | 1023.3 |
| 20260906045906 | 15 | 263 | 4.8 | 12.9 | 0.00 | 0.08 | 0.08 | 77 | 1023.2 |
| 20260906045404 | 15 | 263 | 4.8 | 12.9 | 0.00 | 0.08 | 0.08 | 77 | 1023.2 |
| 20260906044900 | 15 | 263 | 4.8 | 12.9 | 0.00 | 0.08 | 0.08 | 78 | 1023.2 |
| 20260906044407 | 15 | 263 | 4.8 | 12.9 | 0.00 | 0.08 | 0.08 | 78 | 1023.2 |
| 20260906043251 | 15 | 263 | 4.8 | 12.9 | 0.00 | 0.08 | 0.08 | 78 | 1023.3 |
| 20260906042759 | 15 | 263 | 6.4 | 16.1 | 0.00 | 0.08 | 0.08 | 79 | 1023.4 |
| 20260906041622 | 15 | 263 | 8.0 | 16.1 | 0.00 | 0.08 | 0.08 | 79 | 1023.4 |
| 20260906041132 | 15 | 263 | 6.4 | 14.5 | 0.00 | 0.08 | 0.08 | 79 | 1023.5 |
| 20260906040633 | 15 | 263 | 4.8 | 14.5 | 0.00 | 0.10 | 0.08 | 79 | 1023.5 |
| 20260906035518 | 15 | 263 | 6.4 | 14.5 | 0.00 | 0.10 | 0.08 | 80 | 1023.8 |
| 20260906035016 | 15 | 263 | 6.4 | 14.5 | 0.00 | 0.10 | 0.08 | 80 | 1023.8 |
| 20260906033838 | 14 | 263 | 6.4 | 14.5 | 0.00 | 0.10 | 0.08 | 80 | 1023.8 |
| 20260906033333 | 14 | 263 | 6.4 | 14.5 | 0.00 | 0.10 | 0.08 | 80 | 1023.8 |
| 20260906032825 | 14 | 263 | 6.4 | 14.5 | 0.00 | 0.10 | 0.08 | 79 | 1023.8 |
| 20260906032306 | 14 | 263 | 4.8 | 16.1 | 0.00 | 0.10 | 0.08 | 79 | 1023.8 |
| 20260906031814 | 14 | 263 | 4.8 | 16.1 | 0.00 | 0.10 | 0.08 | 79 | 1023.8 |
| 20260906031259 | 14 | 263 | 6.4 | 16.1 | 0.00 | 0.10 | 0.08 | 79 | 1023.9 |
| 20260906030801 | 14 | 263 | 6.4 | 16.1 | 0.00 | 0.10 | 0.08 | 79 | 1023.9 |
| 20260906030258 | 14 | 263 | 4.8 | 14.5 | 0.00 | 0.10 | 0.08 | 79 | 1023.9 |
| 20260906025803 | 14 | 263 | 4.8 | 14.5 | 0.00 | 0.10 | 0.08 | 79 | 1024.0 |
| 20260906025259 | 15 | 263 | 4.8 | 12.9 | 0.00 | 0.10 | 0.08 | 79 | 1024.0 |
| 20260906024805 | 15 | 263 | 3.2 | 12.9 | 0.00 | 0.10 | 0.08 | 78 | 1024.0 |
| 20260906024256 | 15 | 263 | 4.8 | 16.1 | 0.00 | 0.10 | 0.08 | 77 | 1023.9 |
| 20260906023804 | 15 | 263 | 4.8 | 16.1 | 0.00 | 0.10 | 0.08 | 76 | 1023.9 |
| 20260906023253 | 15 | 263 | 6.4 | 16.1 | 0.00 | 0.10 | 0.08 | 76 | 1023.9 |
| 20260906022745 | 16 | 263 | 6.4 | 16.1 | 0.00 | 0.10 | 0.08 | 76 | 1024.1 |
| 20260906022245 | 15 | 263 | 3.2 | 14.5 | 0.00 | 0.10 | 0.08 | 78 | 1024.1 |
| 20260906021113 | 15 | 263 | 4.8 | 12.9 | 0.00 | 0.10 | 0.08 | 77 | 1024.3 |
| 20260906020613 | 15 | 263 | 4.8 | 12.9 | 0.00 | 0.10 | 0.08 | 77 | 1024.3 |
| 20260906015443 | 15 | 263 | 4.8 | 12.9 | 0.00 | 0.10 | 0.08 | 80 | 1024.4 |
| 20260906014947 | 14 | 263 | 4.8 | 12.9 | 0.00 | 0.10 | 0.08 | 81 | 1024.4 |
| 20260906014451 | 14 | 263 | 4.8 | 12.9 | 0.00 | 0.10 | 0.08 | 81 | 1024.4 |
| 20260906013317 | 15 | 263 | 3.2 | 12.9 | 0.00 | 0.10 | 0.08 | 85 | 1024.3 |
| 20260906012812 | 14 | 263 | 1.6 | 12.9 | 0.00 | 0.10 | 0.08 | 85 | 1024.4 |
| 20260906012307 | 13 | 263 | 0.0 | 6.4 | 0.00 | 0.10 | 0.08 | 88 | 1024.4 |
| 20260906011751 | 13 | 263 | 1.6 | 6.4 | 0.00 | 0.10 | 0.08 | 87 | 1024.4 |
| 20260906011247 | 13 | 263 | 1.6 | 6.4 | 0.00 | 0.10 | 0.08 | 87 | 1024.3 |
| 20260906010736 | 13 | 263 | 1.6 | 6.4 | 0.00 | 0.10 | 0.08 | 87 | 1024.3 |
| 20260906010231 | 13 | 263 | 1.6 | 6.4 | 0.00 | 0.10 | 0.08 | 87 | 1024.3 |
| 20260906005730 | 13 | 263 | 1.6 | 6.4 | 0.00 | 0.10 | 0.08 | 88 | 1024.3 |
| 20260906004604 | 13 | 263 | 0.0 | 6.4 | 0.00 | 0.10 | 0.08 | 88 | 1024.3 |
| 20260906004044 | 13 | 263 | 0.0 | 6.4 | 0.00 | 0.10 | 0.08 | 88 | 1024.3 |
| 20260906003545 | 13 | 263 | 1.6 | 6.4 | 0.00 | 0.10 | 0.08 | 88 | 1024.3 |
| 20260906003047 | 13 | 263 | 3.2 | 9.7 | 0.00 | 0.10 | 0.08 | 88 | 1024.3 |
| 20260906002528 | 13 | 263 | 3.2 | 9.7 | 0.00 | 0.10 | 0.08 | 87 | 1024.3 |
| 20260906002016 | 13 | 263 | 3.2 | 17.7 | 0.00 | 0.10 | 0.08 | 87 | 1024.3 |
| 20260906000854 | 13 | 263 | 4.8 | 17.7 | 0.00 | 0.25 | 0.08 | 87 | 1024.3 |
| 20260906000340 | 13 | 263 | 3.2 | 17.7 | 0.00 | 0.25 | 0.08 | 88 | 1024.3 |
| 20260905235840 | 13 | 263 | 0.0 | 4.8 | 0.00 | 0.25 | 0.08 | 88 | 1024.1 |
| 20260905235337 | 12 | 263 | 0.0 | 3.2 | 0.00 | 0.25 | 0.08 | 88 | 1024.1 |
| 20260905234211 | 12 | 263 | 0.0 | 0.0 | 0.00 | 0.25 | 0.08 | 88 | 1023.9 |
| 20260905232453 | 13 | 263 | 3.2 | 9.7 | 0.00 | 0.25 | 0.08 | 87 | 1023.8 |
| 20260905231956 | 13 | 263 | 0.0 | 9.7 | 0.00 | 0.25 | 0.08 | 88 | 1023.8 |
| 20260905231436 | 13 | 263 | 0.0 | 1.6 | 0.00 | 0.25 | 0.08 | 89 | 1023.8 |
| 20260905230922 | 13 | 263 | 0.0 | 0.0 | 0.00 | 0.28 | 0.08 | 89 | 1023.5 |
| 20260905230408 | 13 | 263 | 0.0 | 0.0 | 0.00 | 0.46 | 0.08 | 90 | 1023.5 |
| 20260905225917 | 13 | 263 | 0.0 | 0.0 | 0.00 | 0.46 | 0.08 | 90 | 1023.5 |
| 20260905225413 | 13 | 263 | 0.0 | 3.2 | 0.00 | 0.46 | 0.08 | 91 | 1023.4 |
| 20260905224905 | 13 | 263 | 0.0 | 0.0 | 0.00 | 0.46 | 0.08 | 91 | 1023.4 |
| 20260905224407 | 13 | 263 | 0.0 | 0.0 | 0.00 | 0.46 | 0.08 | 91 | 1023.4 |
| 20260905223852 | 12 | 263 | 0.0 | 0.0 | 0.00 | 0.46 | 0.08 | 92 | 1023.2 |
| 20260905223341 | 12 | 263 | 0.0 | 0.0 | 0.00 | 0.46 | 0.08 | 92 | 1023.2 |
| 20260905222843 | 12 | 263 | 0.0 | 0.0 | 0.00 | 0.46 | 0.08 | 92 | 1022.8 |
| 20260905222345 | 12 | 263 | 0.0 | 0.0 | 0.00 | 0.46 | 0.08 | 91 | 1022.8 |
| 20260905221217 | 12 | 263 | 0.0 | 0.0 | 0.00 | 0.46 | 0.08 | 92 | 1022.7 |
| 20260905220727 | 11 | 263 | 0.0 | 0.0 | 0.00 | 0.46 | 0.08 | 92 | 1022.7 |
| 20260905220233 | 11 | 263 | 0.0 | 0.0 | 0.00 | 0.46 | 0.08 | 91 | 1022.7 |
| 20260905215730 | 11 | 263 | 0.0 | 0.0 | 0.00 | 0.46 | 0.08 | 91 | 1022.6 |
| 20260905215214 | 11 | 263 | 0.0 | 0.0 | 0.00 | 0.43 | 0.05 | 91 | 1022.6 |
| 20260905214718 | 11 | 263 | 0.0 | 0.0 | 0.00 | 0.43 | 0.05 | 91 | 1022.6 |
| 20260905214206 | 11 | 263 | 0.0 | 3.2 | 0.00 | 0.43 | 0.05 | 91 | 1022.3 |
| 20260905213648 | 11 | 263 | 0.0 | 0.0 | 0.00 | 0.43 | 0.05 | 91 | 1022.3 |
| 20260905213139 | 11 | 263 | 0.0 | 0.0 | 0.00 | 0.43 | 0.05 | 91 | 1022.3 |
| 20260905212635 | 11 | 263 | 0.0 | 0.0 | 0.00 | 0.43 | 0.05 | 90 | 1022.2 |
| 20260905211456 | 11 | 263 | 0.0 | 0.0 | 0.00 | 0.43 | 0.05 | 90 | 1022.2 |
| 20260905210942 | 11 | 263 | 0.0 | 0.0 | 0.00 | 0.43 | 0.05 | 90 | 1021.8 |
| 20260905210437 | 11 | 263 | 0.0 | 0.0 | 0.00 | 0.43 | 0.05 | 90 | 1021.8 |
| 20260905205945 | 11 | 263 | 0.0 | 0.0 | 0.00 | 0.43 | 0.05 | 90 | 1021.8 |
| 20260905205439 | 11 | 263 | 0.0 | 0.0 | 0.00 | 0.43 | 0.05 | 90 | 1021.7 |
| 20260905204948 | 11 | 263 | 0.0 | 0.0 | 0.00 | 0.43 | 0.05 | 90 | 1021.7 |
| 20260905204444 | 11 | 263 | 0.0 | 0.0 | 0.00 | 0.43 | 0.05 | 90 | 1021.7 |
| 20260905203928 | 11 | 263 | 0.0 | 0.0 | 0.00 | 0.43 | 0.05 | 90 | 1021.7 |
| 20260905203429 | 11 | 263 | 0.0 | 0.0 | 0.00 | 0.43 | 0.05 | 90 | 1021.7 |
| 20260905202913 | 11 | 263 | 0.0 | 0.0 | 0.00 | 0.43 | 0.05 | 90 | 1021.7 |
| 20260905202412 | 11 | 263 | 0.0 | 0.0 | 0.00 | 0.43 | 0.05 | 90 | 1021.7 |
| 20260905201900 | 11 | 263 | 0.0 | 0.0 | 0.00 | 0.43 | 0.05 | 90 | 1021.7 |
| 20260905201355 | 11 | 263 | 0.0 | 0.0 | 0.00 | 0.43 | 0.05 | 90 | 1021.5 |
| 20260905200838 | 11 | 263 | 0.0 | 0.0 | 0.00 | 0.43 | 0.05 | 90 | 1021.5 |
| 20260905200322 | 11 | 263 | 0.0 | 0.0 | 0.00 | 0.43 | 0.05 | 90 | 1021.5 |
| 20260905195202 | 11 | 263 | 0.0 | 0.0 | 0.00 | 0.43 | 0.05 | 89 | 1021.3 |
| 20260905194643 | 11 | 263 | 0.0 | 0.0 | 0.00 | 0.46 | 0.05 | 89 | 1021.3 |
| 20260905194122 | 11 | 263 | 0.0 | 0.0 | 0.00 | 0.46 | 0.05 | 90 | 1021.2 |
| 20260905193627 | 12 | 263 | 0.0 | 0.0 | 0.00 | 0.46 | 0.05 | 89 | 1021.2 |
| 20260905193131 | 12 | 263 | 0.0 | 1.6 | 0.00 | 0.46 | 0.05 | 89 | 1021.2 |
| 20260905192623 | 12 | 263 | 1.6 | 12.9 | 0.00 | 0.46 | 0.05 | 89 | 1021.2 |
| 20260905191439 | 12 | 263 | 0.0 | 4.8 | 0.00 | 0.43 | 0.03 | 89 | 1021.2 |
| 20260905190920 | 12 | 263 | 0.0 | 0.0 | 0.00 | 0.43 | 0.03 | 89 | 1021.1 |
| 20260905190414 | 12 | 263 | 0.0 | 0.0 | 0.00 | 0.43 | 0.03 | 89 | 1021.1 |
| 20260905185915 | 12 | 263 | 0.0 | 0.0 | 0.00 | 0.43 | 0.03 | 89 | 1021.1 |
| 20260905185405 | 12 | 263 | 0.0 | 0.0 | 0.00 | 0.43 | 0.03 | 89 | 1020.9 |
| 20260905184900 | 12 | 263 | 0.0 | 0.0 | 0.00 | 0.43 | 0.03 | 89 | 1020.9 |
| 20260905184351 | 12 | 263 | 0.0 | 0.0 | 0.00 | 0.43 | 0.03 | 89 | 1020.7 |
| 20260905183858 | 12 | 263 | 0.0 | 3.2 | 0.00 | 0.43 | 0.03 | 89 | 1020.7 |
| 20260905183359 | 12 | 263 | 0.0 | 3.2 | 0.00 | 0.43 | 0.03 | 89 | 1020.7 |
| 20260905182845 | 12 | 263 | 0.0 | 0.0 | 0.00 | 0.43 | 0.03 | 88 | 1020.7 |
| 20260905181718 | 12 | 263 | 0.0 | 4.8 | 0.00 | 0.41 | 0.00 | 88 | 1020.7 |
| 20260905181224 | 12 | 263 | 3.2 | 9.7 | 0.00 | 0.41 | 0.00 | 88 | 1020.7 |
| 20260905180716 | 12 | 263 | 3.2 | 9.7 | 0.00 | 0.41 | 0.00 | 88 | 1020.7 |
| 20260905180210 | 12 | 263 | 1.6 | 9.7 | 0.00 | 0.41 | 0.00 | 88 | 1020.7 |
| 20260905175715 | 12 | 263 | 3.2 | 9.7 | 0.00 | 0.41 | 0.00 | 88 | 1020.7 |
| 20260905174544 | 12 | 263 | 3.2 | 9.7 | 0.00 | 0.38 | 0.00 | 87 | 1020.7 |
| 20260905172747 | 12 | 263 | 1.6 | 12.9 | 0.00 | 0.38 | 0.00 | 87 | 1020.9 |
| 20260905172254 | 12 | 263 | 1.6 | 12.9 | 0.00 | 0.38 | 0.00 | 87 | 1020.9 |
| 20260905171127 | 12 | 263 | 4.8 | 12.9 | 0.00 | 0.38 | 0.00 | 87 | 1021.1 |
| 20260905170018 | 12 | 263 | 1.6 | 9.7 | 0.00 | 0.38 | 0.00 | 87 | 1021.1 |
| 20260905165513 | 12 | 263 | 3.2 | 9.7 | 0.00 | 0.38 | 0.00 | 87 | 1021.1 |
| 20260905164346 | 12 | 263 | 4.8 | 12.9 | 0.00 | 0.38 | 0.00 | 86 | 1021.1 |
| 20260905163832 | 12 | 263 | 4.8 | 14.5 | 0.00 | 0.38 | 0.00 | 86 | 1021.1 |
| 20260905163334 | 12 | 263 | 4.8 | 14.5 | 0.00 | 0.38 | 0.00 | 86 | 1021.1 |
| 20260905162831 | 12 | 263 | 4.8 | 14.5 | 0.00 | 0.38 | 0.00 | 86 | 1021.1 |
| 20260905162331 | 12 | 263 | 3.2 | 14.5 | 0.00 | 0.38 | 0.00 | 86 | 1021.1 |
| 20260905161143 | 12 | 263 | 3.2 | 9.7 | 0.00 | 0.38 | 0.00 | 85 | 1021.2 |
| 20260905160629 | 12 | 263 | 3.2 | 8.0 | 0.00 | 0.38 | 0.00 | 85 | 1021.2 |
| 20260905160117 | 12 | 263 | 1.6 | 8.0 | 0.00 | 0.38 | 0.00 | 85 | 1021.2 |
| 20260905155604 | 12 | 263 | 1.6 | 9.7 | 0.00 | 0.38 | 0.00 | 84 | 1021.2 |
| 20260905155050 | 13 | 263 | 3.2 | 9.7 | 0.00 | 0.38 | 0.00 | 84 | 1021.2 |
| 20260905153951 | 13 | 263 | 3.2 | 9.7 | 0.00 | 0.38 | 0.00 | 83 | 1021.1 |
| 20260905153500 | 13 | 263 | 3.2 | 9.7 | 0.00 | 0.38 | 0.00 | 83 | 1021.1 |
| 20260905152955 | 13 | 263 | 3.2 | 9.7 | 0.00 | 0.38 | 0.00 | 82 | 1021.1 |
| 20260905152502 | 13 | 263 | 3.2 | 9.7 | 0.00 | 0.38 | 0.00 | 82 | 1021.1 |
| 20260905151338 | 13 | 263 | 1.6 | 8.0 | 0.00 | 0.38 | 0.00 | 80 | 1021.1 |
| 20260905150822 | 13 | 263 | 0.0 | 9.7 | 0.00 | 0.38 | 0.00 | 80 | 1021.1 |
| 20260905150320 | 13 | 263 | 1.6 | 9.7 | 0.00 | 0.38 | 0.00 | 80 | 1021.1 |
| 20260905145823 | 13 | 263 | 3.2 | 17.7 | 0.00 | 0.38 | 0.00 | 79 | 1021.1 |
| 20260905145306 | 13 | 263 | 4.8 | 17.7 | 0.00 | 0.38 | 0.00 | 79 | 1021.1 |
| 20260905144757 | 13 | 263 | 4.8 | 17.7 | 0.00 | 0.38 | 0.00 | 79 | 1021.1 |
| 20260905144245 | 13 | 263 | 3.2 | 17.7 | 0.00 | 0.38 | 0.00 | 79 | 1021.0 |
| 20260905143115 | 13 | 263 | 3.2 | 12.9 | 0.00 | 0.38 | 0.00 | 79 | 1021.0 |
| 20260905142618 | 13 | 263 | 4.8 | 17.7 | 0.00 | 0.38 | 0.38 | 79 | 1021.1 |
| 20260905142107 | 13 | 263 | 6.4 | 17.7 | 0.00 | 0.38 | 0.38 | 79 | 1021.1 |
| 20260905141613 | 13 | 263 | 8.0 | 20.9 | 0.00 | 0.38 | 0.38 | 79 | 1021.1 |
| 20260905140441 | 13 | 263 | 8.0 | 20.9 | 0.00 | 0.38 | 0.38 | 79 | 1021.1 |
| 20260905134648 | 13 | 263 | 4.8 | 14.5 | 0.00 | 0.41 | 0.38 | 81 | 1021.0 |
| 20260905134129 | 13 | 263 | 4.8 | 16.1 | 0.00 | 0.41 | 0.38 | 81 | 1020.8 |
| 20260905133616 | 13 | 263 | 4.8 | 16.1 | 0.00 | 0.41 | 0.38 | 80 | 1020.8 |
| 20260905133120 | 13 | 263 | 4.8 | 24.1 | 0.00 | 0.41 | 0.38 | 80 | 1020.8 |
| 20260905132004 | 13 | 263 | 9.7 | 24.1 | 0.00 | 0.41 | 0.38 | 79 | 1020.8 |
| 20260905131513 | 13 | 263 | 9.7 | 24.1 | 0.00 | 0.41 | 0.38 | 79 | 1020.8 |
| 20260905130959 | 13 | 263 | 9.7 | 20.9 | 0.00 | 0.41 | 0.38 | 79 | 1020.7 |
| 20260905130458 | 13 | 263 | 8.0 | 20.9 | 0.00 | 0.41 | 0.38 | 79 | 1020.7 |
| 20260905130004 | 13 | 263 | 9.7 | 22.5 | 0.00 | 0.41 | 0.38 | 79 | 1020.7 |
| 20260905125504 | 13 | 263 | 9.7 | 22.5 | 0.00 | 0.41 | 0.38 | 79 | 1020.6 |
| 20260905125005 | 13 | 263 | 8.0 | 22.5 | 0.00 | 0.41 | 0.38 | 80 | 1020.6 |
| 20260905124510 | 13 | 263 | 8.0 | 22.5 | 0.00 | 0.41 | 0.38 | 80 | 1020.6 |
| 20260905124017 | 13 | 263 | 6.4 | 16.1 | 0.00 | 0.41 | 0.38 | 81 | 1020.4 |
| 20260905123521 | 13 | 263 | 6.4 | 16.1 | 0.00 | 0.41 | 0.38 | 81 | 1020.4 |
| 20260905121744 | 13 | 263 | 8.0 | 20.9 | 0.00 | 0.41 | 0.38 | 80 | 1020.2 |
| 20260905121233 | 13 | 263 | 8.0 | 19.3 | 0.00 | 0.41 | 0.38 | 80 | 1020.1 |
| 20260905120741 | 13 | 263 | 6.4 | 22.5 | 0.00 | 0.41 | 0.38 | 80 | 1020.1 |
| 20260905120246 | 13 | 263 | 8.0 | 22.5 | 0.00 | 0.41 | 0.38 | 80 | 1020.1 |
| 20260905115744 | 13 | 263 | 9.7 | 22.5 | 0.00 | 0.41 | 0.38 | 80 | 1020.0 |
| 20260905115241 | 13 | 263 | 9.7 | 22.5 | 0.00 | 0.41 | 0.38 | 80 | 1020.0 |
| 20260905114726 | 13 | 263 | 8.0 | 19.3 | 0.00 | 0.41 | 0.38 | 81 | 1020.0 |
| 20260905114223 | 13 | 263 | 4.8 | 14.5 | 0.00 | 0.41 | 0.38 | 81 | 1019.9 |
| 20260905113720 | 13 | 263 | 4.8 | 14.5 | 0.00 | 0.41 | 0.38 | 81 | 1019.9 |
| 20260905113214 | 13 | 263 | 4.8 | 14.5 | 0.00 | 0.41 | 0.38 | 81 | 1019.9 |
| 20260905112707 | 13 | 263 | 6.4 | 20.9 | 0.00 | 0.41 | 0.38 | 81 | 1019.7 |
| 20260905112149 | 13 | 263 | 8.0 | 20.9 | 0.00 | 0.41 | 0.38 | 81 | 1019.7 |
| 20260905111644 | 13 | 263 | 8.0 | 20.9 | 0.00 | 0.41 | 0.38 | 81 | 1019.7 |
| 20260905111132 | 13 | 263 | 8.0 | 20.9 | 0.00 | 0.41 | 0.38 | 81 | 1019.6 |
| 20260905110641 | 13 | 263 | 6.4 | 19.3 | 0.00 | 0.41 | 0.38 | 81 | 1019.6 |
| 20260905110137 | 13 | 263 | 6.4 | 19.3 | 0.00 | 0.41 | 0.38 | 81 | 1019.6 |
| 20260905105625 | 13 | 263 | 6.4 | 19.3 | 0.00 | 0.41 | 0.38 | 81 | 1019.4 |
| 20260905105109 | 13 | 263 | 8.0 | 19.3 | 0.00 | 0.41 | 0.38 | 81 | 1019.4 |
| 20260905104003 | 13 | 263 | 9.7 | 20.9 | 0.00 | 0.41 | 0.38 | 81 | 1019.2 |
| 20260905103500 | 13 | 263 | 8.0 | 20.9 | 0.00 | 0.41 | 0.38 | 81 | 1019.2 |
| 20260905102944 | 13 | 263 | 9.7 | 25.7 | 0.00 | 0.41 | 0.38 | 81 | 1019.2 |
| 20260905102425 | 13 | 263 | 9.7 | 25.7 | 0.00 | 0.41 | 0.38 | 80 | 1019.1 |
| 20260905101932 | 13 | 263 | 11.3 | 25.7 | 0.00 | 0.41 | 0.38 | 80 | 1019.1 |
| 20260905100751 | 13 | 263 | 9.7 | 20.9 | 0.00 | 0.41 | 0.38 | 80 | 1018.7 |
| 20260905100257 | 13 | 263 | 8.0 | 19.3 | 0.00 | 0.41 | 0.38 | 80 | 1018.7 |
| 20260905095743 | 13 | 263 | 8.0 | 19.3 | 0.00 | 0.41 | 0.38 | 80 | 1018.6 |
| 20260905095238 | 13 | 263 | 9.7 | 19.3 | 0.00 | 0.41 | 0.38 | 80 | 1018.6 |
| 20260905094725 | 13 | 263 | 9.7 | 17.7 | 0.00 | 0.41 | 0.38 | 79 | 1018.6 |
| 20260905094227 | 13 | 263 | 8.0 | 30.6 | 0.00 | 0.41 | 0.38 | 79 | 1018.5 |
| 20260905093719 | 13 | 263 | 8.0 | 30.6 | 0.00 | 0.41 | 0.38 | 78 | 1018.5 |
| 20260905093224 | 13 | 263 | 12.9 | 30.6 | 0.00 | 0.41 | 0.38 | 77 | 1018.5 |
| 20260905092707 | 13 | 263 | 12.9 | 30.6 | 0.00 | 0.41 | 0.38 | 76 | 1018.1 |
| 20260905092205 | 13 | 263 | 11.3 | 22.5 | 0.00 | 0.41 | 0.38 | 75 | 1018.1 |
| 20260905091659 | 13 | 263 | 11.3 | 22.5 | 0.00 | 0.41 | 0.38 | 75 | 1018.1 |
| 20260905091139 | 13 | 263 | 9.7 | 27.4 | 0.00 | 0.41 | 0.38 | 75 | 1018.0 |
| 20260905090636 | 13 | 263 | 9.7 | 27.4 | 0.00 | 0.41 | 0.38 | 75 | 1018.0 |
| 20260905090143 | 13 | 263 | 12.9 | 27.4 | 0.00 | 0.41 | 0.38 | 75 | 1018.0 |
| 20260905084406 | 13 | 263 | 11.3 | 24.1 | 0.00 | 0.41 | 0.38 | 75 | 1017.2 |
| 20260905083854 | 13 | 263 | 11.3 | 29.0 | 0.00 | 0.41 | 0.38 | 74 | 1017.2 |
| 20260905083344 | 14 | 263 | 12.9 | 29.0 | 0.00 | 0.41 | 0.38 | 73 | 1017.2 |
| 20260905082203 | 14 | 263 | 14.5 | 29.0 | 0.00 | 0.41 | 0.38 | 70 | 1016.9 |
| 20260905081644 | 14 | 263 | 14.5 | 38.6 | 0.00 | 0.41 | 0.38 | 70 | 1016.9 |
| 20260905081138 | 14 | 263 | 14.5 | 38.6 | 0.00 | 0.41 | 0.38 | 70 | 1016.4 |
| 20260905080623 | 14 | 263 | 16.1 | 38.6 | 0.00 | 0.41 | 0.38 | 69 | 1016.4 |
| 20260905080126 | 14 | 263 | 17.7 | 38.6 | 0.00 | 0.41 | 0.38 | 69 | 1016.4 |
| 20260905075615 | 14 | 263 | 14.5 | 33.8 | 0.00 | 0.41 | 0.38 | 68 | 1016.1 |
| 20260905074451 | 14 | 263 | 14.5 | 32.2 | 0.00 | 0.41 | 0.38 | 69 | 1016.1 |
| 20260905073935 | 15 | 263 | 11.3 | 27.4 | 0.00 | 0.41 | 0.38 | 69 | 1015.9 |
| 20260905073433 | 15 | 263 | 11.3 | 25.7 | 0.00 | 0.41 | 0.38 | 70 | 1015.9 |
| 20260905072928 | 15 | 263 | 12.9 | 25.7 | 0.00 | 0.41 | 0.38 | 69 | 1015.9 |
| 20260905072434 | 15 | 263 | 12.9 | 25.7 | 0.00 | 0.41 | 0.38 | 68 | 1015.8 |
| 20260905071923 | 15 | 263 | 12.9 | 25.7 | 0.00 | 0.41 | 0.38 | 68 | 1015.8 |
| 20260905071416 | 15 | 263 | 12.9 | 33.8 | 0.00 | 0.41 | 0.38 | 67 | 1015.8 |
| 20260905070903 | 15 | 263 | 12.9 | 33.8 | 0.00 | 0.41 | 0.38 | 67 | 1015.7 |
| 20260905070406 | 15 | 263 | 14.5 | 33.8 | 0.00 | 0.41 | 0.38 | 66 | 1015.7 |
| 20260905065904 | 15 | 263 | 16.1 | 33.8 | 0.00 | 0.41 | 0.38 | 66 | 1015.4 |
| 20260905064755 | 15 | 263 | 16.1 | 32.2 | 0.00 | 0.41 | 0.38 | 66 | 1015.4 |
| 20260905064241 | 15 | 263 | 16.1 | 37.0 | 0.00 | 0.41 | 0.38 | 66 | 1015.4 |
| 20260905063746 | 15 | 263 | 17.7 | 37.0 | 0.00 | 0.41 | 0.38 | 67 | 1015.4 |
| 20260905063241 | 15 | 263 | 19.3 | 37.0 | 0.00 | 0.41 | 0.38 | 67 | 1015.4 |
| 20260905062720 | 15 | 263 | 19.3 | 37.0 | 0.00 | 0.41 | 0.38 | 69 | 1015.2 |